Hourly Data Report for May 05, 2020

STE-ANNE-DE-BELLEVUE 1
QUEBEC
Current Station Operator: ECCC - MSC

45°25'38.000" N
73°55'45.000" W
39.00 m
702FHL8
71377
WVQ

Download Data

Hourly Data (May 2020)
Hourly Data Report for May 5, 2020
TIME
LST
Temp Definition
°C
Dew Point Definition
°C
Rel Hum Definition
%
Precip. Amount Definition
mm

Wind Dir Definition
10's deg

Wind Spd Definition
km/h
Visibility Definition
km
Stn Press Definition
kPa
Hmdx Definition


Wind Chill Definition


Weather Definition


00:00 5.4 -3.7 52 0.0 34 16   100.73     LegendNANA
01:00 4.4 -3.3 57 0.0 32 15   100.77     LegendNANA
02:00 4.0 -3.4 59 0.0 33 13   100.74     LegendNANA
03:00 3.0 -2.6 67 0.0 1 8   100.74     LegendNANA
04:00 3.0 -4.2 59 0.0 33 19   100.77     LegendNANA
05:00 2.9 -4.4 59 0.0 31 12   100.85     LegendNANA
06:00 2.7 -4.9 57 0.0 32 16   100.90     LegendNANA
07:00 3.0 -5.2 55 0.0 31 13   100.91     LegendNANA
08:00 3.7 -4.5 55 0.0 32 13   100.95     LegendNANA
09:00 4.2 -4.2 54 0.0 32 11   100.95     LegendNANA
10:00 5.3 -3.0 55 0.0 34 11   100.94     LegendNANA
11:00 6.8 -2.9 50 0.0 26 14   100.93     LegendNANA
12:00 7.5 -3.6 45 0.0 27 16   100.90     LegendNANA
13:00 9.1 -1.5 47 0.0 26 11   100.88     LegendNANA
14:00 9.6 -3.1 41 0.0 26 9   100.83     LegendNANA
15:00 11.5 -1.7 40 0.0 28 14   100.80     LegendNANA
16:00 11.1 -2.6 38 0.0 27 17   100.79     LegendNANA
17:00 11.0 -2.3 39 0.0 28 12   100.81     LegendNANA
18:00 10.7 -2.2 40 0.0 33 2   100.86     LegendNANA
19:00 10.3 -2.3 41 0.0 2 5   100.91     LegendNANA
20:00 8.7 -2.5 45 0.0 6 4   100.95     LegendNANA
21:00 5.9 -1.9 57 0.0   0   100.97     LegendNANA
22:00 4.2 -1.6 66 0.0 33 3   100.94     LegendNANA
23:00 4.7 0.1 72 0.0 32 4   100.93     LegendNANA

Notes on Data Quality.

Legend

  • E = Estimated
  • M = Missing
  • NA = Not Available*
  • [empty] = Indicates an unobserved value
Date modified: